Météo par heure à 1-e Tukatovo

Ce jour, 18 Avril, Dimanche

Heure Température Précipitation Vent Pression Humidité
00:00 +11°C° 0 mm 1 m/s 737 mmHg 71%
01:00 +10°C° 0 mm 1 m/s 736 mmHg 72%
02:00 +10°C° 0 mm 1 m/s 736 mmHg 73%
03:00 +9°C° 0 mm 1 m/s 736 mmHg 74%
04:00 +8°C° 0 mm 2 m/s 736 mmHg 76%
05:00 +9°C° 0 mm 1 m/s 736 mmHg 75%
06:00 +10°C° 0 mm 1 m/s 736 mmHg 75%
07:00 +10°C° 0 mm 1 m/s 736 mmHg 74%
08:00 +12°C° 0 mm 2 m/s 736 mmHg 68%
09:00 +14°C° 0 mm 2 m/s 736 mmHg 62%
10:00 +16°C° 0 mm 2 m/s 736 mmHg 56%
11:00 +16°C° 0 mm 3 m/s 736 mmHg 51%
12:00 +17°C° 0 mm 3 m/s 736 mmHg 46%
13:00 +18°C° 0 mm 4 m/s 736 mmHg 41%
14:00 +18°C° 0 mm 4 m/s 736 mmHg 40%
15:00 +18°C° 0 mm 4 m/s 736 mmHg 40%
16:00 +17°C° 0 mm 4 m/s 736 mmHg 39%
17:00 +15°C° 0 mm 4 m/s 736 mmHg 44%
18:00 +13°C° 0 mm 3 m/s 736 mmHg 49%
19:00 +13°C° 0 mm 2 m/s 736 mmHg 55%
20:00 +11°C° 0 mm 4 m/s 736 mmHg 59%
21:00 +8°C° 0 mm 5 m/s 737 mmHg 64%
22:00 +6°C° 0 mm 7 m/s 737 mmHg 68%
23:00 +5°C° 0 mm 7 m/s 738 mmHg 68%

Demain, 19 Avril, Lundi

Heure Température Précipitation Vent Pression Humidité
00:00 +2°C° 0 mm 8 m/s 738 mmHg 67%
01:00 +1°C° 0 mm 8 m/s 739 mmHg 67%
02:00 0°C° 0 mm 8 m/s 739 mmHg 68%
03:00 -1°C° 0 mm 8 m/s 740 mmHg 69%
04:00 -1°C° 0 mm 8 m/s 740 mmHg 70%
05:00 -2°C° 0 mm 8 m/s 740 mmHg 68%
06:00 -2°C° 0 mm 8 m/s 741 mmHg 67%
07:00 -3°C° 0 mm 9 m/s 741 mmHg 65%
08:00 -2°C° 0 mm 8 m/s 741 mmHg 59%
09:00 -2°C° 0 mm 8 m/s 742 mmHg 53%
10:00 -1°C° 0 mm 7 m/s 742 mmHg 46%
11:00 0°C° 0 mm 7 m/s 742 mmHg 44%
12:00 +2°C° 0 mm 7 m/s 742 mmHg 41%
13:00 +3°C° 0 mm 7 m/s 743 mmHg 39%
14:00 +3°C° 0 mm 7 m/s 743 mmHg 38%
15:00 +4°C° 0 mm 7 m/s 743 mmHg 36%
16:00 +4°C° 0 mm 7 m/s 743 mmHg 35%
17:00 +3°C° 0 mm 6 m/s 743 mmHg 36%
18:00 +2°C° 0 mm 6 m/s 743 mmHg 37%
19:00 +1°C° 0 mm 6 m/s 744 mmHg 38%
20:00 -1°C° 0 mm 6 m/s 744 mmHg 39%
21:00 -2°C° 0 mm 6 m/s 745 mmHg 41%
22:00 -3°C° 0 mm 6 m/s 745 mmHg 42%
23:00 -3°C° 0 mm 6 m/s 745 mmHg 42%

Après-demain, 20 Avril, Mardi

Heure Température Précipitation Vent Pression Humidité
00:00 -4°C° 0 mm 6 m/s 746 mmHg 43%
01:00 -4°C° 0 mm 6 m/s 746 mmHg 43%
02:00 -4°C° 0 mm 6 m/s 746 mmHg 43%
03:00 -5°C° 0 mm 6 m/s 746 mmHg 43%
04:00 -5°C° 0 mm 5 m/s 747 mmHg 43%
05:00 -5°C° 0 mm 6 m/s 747 mmHg 41%
06:00 -4°C° 0 mm 6 m/s 747 mmHg 40%
07:00 -4°C° 0 mm 6 m/s 747 mmHg 38%
08:00 -3°C° 0 mm 6 m/s 748 mmHg 34%
09:00 -1°C° 0 mm 6 m/s 748 mmHg 31%
10:00 +1°C° 0 mm 6 m/s 748 mmHg 27%
11:00 +2°C° 0 mm 6 m/s 748 mmHg 27%
12:00 +3°C° 0 mm 6 m/s 748 mmHg 26%
13:00 +4°C° 0 mm 6 m/s 748 mmHg 26%
14:00 +5°C° 0 mm 5 m/s 747 mmHg 26%
15:00 +5°C° 0 mm 5 m/s 747 mmHg 27%
16:00 +5°C° 0 mm 5 m/s 747 mmHg 27%
17:00 +4°C° 0 mm 4 m/s 747 mmHg 33%
18:00 +3°C° 0 mm 3 m/s 747 mmHg 39%
19:00 +3°C° 0 mm 2 m/s 748 mmHg 44%
20:00 +2°C° 0 mm 2 m/s 748 mmHg 47%
21:00 +2°C° 0 mm 1 m/s 748 mmHg 49%
22:00 +1°C° 0 mm 1 m/s 749 mmHg 52%
23:00 +1°C° 0 mm 1 m/s 748 mmHg 52%

21 Avril, Mercredi

Heure Température Précipitation Vent Pression Humidité
00:00 -2°C° 0 mm 2 m/s 748 mmHg 53%
01:00 -2°C° 0 mm 2 m/s 748 mmHg 54%
02:00 -2°C° 0 mm 2 m/s 748 mmHg 54%
03:00 0°C° 0 mm 1 m/s 748 mmHg 54%
04:00 0°C° 0 mm 1 m/s 748 mmHg 54%
05:00 +1°C° 0 mm 1 m/s 749 mmHg 50%
06:00 +2°C° 0 mm 1 m/s 749 mmHg 46%
07:00 +1°C° 0 mm 2 m/s 749 mmHg 42%
08:00 +3°C° 0 mm 2 m/s 749 mmHg 37%
09:00 +4°C° 0 mm 3 m/s 749 mmHg 33%
10:00 +7°C° 0 mm 3 m/s 748 mmHg 28%
11:00 +8°C° 0 mm 3 m/s 748 mmHg 28%
12:00 +9°C° 0 mm 3 m/s 748 mmHg 28%
13:00 +10°C° 0 mm 3 m/s 748 mmHg 28%
14:00 +10°C° 0 mm 4 m/s 748 mmHg 28%
15:00 +11°C° 0 mm 4 m/s 748 mmHg 29%
16:00 +11°C° 0 mm 4 m/s 748 mmHg 30%
17:00 +10°C° 0 mm 3 m/s 748 mmHg 37%
18:00 +8°C° 0 mm 3 m/s 748 mmHg 43%
19:00 +7°C° 0 mm 2 m/s 748 mmHg 50%
20:00 +6°C° 0 mm 2 m/s 748 mmHg 52%
21:00 +5°C° 0 mm 2 m/s 749 mmHg 54%
22:00 +4°C° 0 mm 2 m/s 749 mmHg 56%
23:00 +3°C° 0 mm 2 m/s 749 mmHg 57%

22 Avril, Jeudi

Heure Température Précipitation Vent Pression Humidité
00:00 +3°C° 0 mm 2 m/s 749 mmHg 57%
01:00 +3°C° 0 mm 1 m/s 749 mmHg 58%
02:00 +3°C° 0 mm 1 m/s 750 mmHg 59%
03:00 +3°C° 0 mm 1 m/s 750 mmHg 59%
04:00 +2°C° 0 mm 1 m/s 750 mmHg 59%
05:00 +3°C° 0 mm 1 m/s 750 mmHg 57%
06:00 +5°C° 0 mm 1 m/s 750 mmHg 54%
07:00 +6°C° 0 mm 1 m/s 750 mmHg 51%
08:00 +6°C° 0 mm 2 m/s 750 mmHg 47%
09:00 +8°C° 0 mm 3 m/s 750 mmHg 42%
10:00 +8°C° 0 mm 4 m/s 750 mmHg 37%
11:00 +10°C° 0 mm 4 m/s 750 mmHg 37%
12:00 +11°C° 0 mm 4 m/s 750 mmHg 36%
13:00 +10°C° 0 mm 5 m/s 750 mmHg 35%
14:00 +12°C° 0 mm 5 m/s 750 mmHg 35%
15:00 +12°C° 0 mm 5 m/s 750 mmHg 36%
16:00 +12°C° 0 mm 5 m/s 749 mmHg 36%
17:00 +11°C° 0 mm 4 m/s 749 mmHg 42%
18:00 +10°C° 0 mm 3 m/s 749 mmHg 49%
19:00 +9°C° 0 mm 2 m/s 749 mmHg 55%
20:00 +8°C° 0 mm 2 m/s 749 mmHg 58%
21:00 +7°C° 0 mm 2 m/s 749 mmHg 60%
22:00 +6°C° 0 mm 2 m/s 749 mmHg 62%
23:00 +6°C° 0 mm 2 m/s 749 mmHg 63%

23 Avril, Vendredi

Heure Température Précipitation Vent Pression Humidité
00:00 +6°C° 0 mm 2 m/s 749 mmHg 64%
01:00 +5°C° 0 mm 2 m/s 748 mmHg 64%
02:00 +5°C° 0 mm 2 m/s 748 mmHg 64%
03:00 +5°C° 0 mm 2 m/s 748 mmHg 65%
04:00 +5°C° 0 mm 2 m/s 748 mmHg 65%
05:00 +5°C° 0 mm 2 m/s 748 mmHg 64%
06:00 +6°C° 0 mm 2 m/s 748 mmHg 63%
07:00 +7°C° 0 mm 2 m/s 748 mmHg 63%
08:00 +8°C° 0 mm 2 m/s 748 mmHg 58%
09:00 +10°C° 0 mm 3 m/s 748 mmHg 52%
10:00 +12°C° 0 mm 4 m/s 748 mmHg 47%
11:00 +12°C° 0 mm 4 m/s 748 mmHg 46%
12:00 +13°C° 0 mm 4 m/s 748 mmHg 44%
13:00 +13°C° 0 mm 4 m/s 747 mmHg 43%
14:00 +14°C° 0 mm 4 m/s 747 mmHg 43%
15:00 +14°C° 0 mm 4 m/s 747 mmHg 43%
16:00 +14°C° 0 mm 5 m/s 747 mmHg 42%
17:00 +13°C° 0 mm 4 m/s 746 mmHg 48%
18:00 +12°C° 0 mm 3 m/s 746 mmHg 53%
19:00 +12°C° 0 mm 2 m/s 746 mmHg 59%
20:00 +10°C° 0 mm 2 m/s 746 mmHg 61%
21:00 +10°C° 0 mm 2 m/s 746 mmHg 64%
22:00 +9°C° 0 mm 2 m/s 746 mmHg 66%
23:00 +9°C° 0 mm 2 m/s 746 mmHg 65%
Voir plus

Nous avons besoin de votre consentement

Meteoprog et ses fournisseurs de services peuvent stocker et accéder à des données personnelles telles que des cookies, des identifiants d'appareils ou d'autres technologies similaires sur votre appareil et traiter ces données pour personnaliser le contenu et les publicités, ainsi que pour fournir des fonctionnalités de médias sociaux et analyser le trafic.

  • Stocker et/ou accéder à des informations sur votre appareil

    Des cookies, des identifiants d'appareils ou d'autres informations peuvent être stockés ou accessibles sur votre appareil aux fins indiquées ci-dessus.

  • Annonces et contenus personnalisés, mesure des annonces et des contenus, connaissance de l'audience et développement de produits

    Les annonces et le contenu peuvent être personnalisés en fonction d'un profil. D'autres données peuvent être ajoutées pour mieux personnaliser les annonces et le contenu. Les performances des publicités et du contenu peuvent être mesurées. Il est possible d'obtenir des informations sur le public qui a vu les publicités et le contenu. Ces données peuvent être utilisées pour développer ou améliorer l'expérience de l'utilisateur, les systèmes et les logiciels.

En cliquant sur "J'accepte", vous autorisez l'utilisation de cookies, des identifiants d'appareils, des balises web ou d'autres technologies similaires. Vos paramètres peuvent être modifiés dans le navigateur de votre appareil.

Dans certains cas, des intérêts légitimes peuvent être invoqués plutôt qu'un consentement. Vous pouvez en savoir plus à ce sujet dans notre Politique de confidentialité et de cookies.